Weather History for K19A - September, 2012

Change the Weather History Date:

Monday, September 17, 2012

  Actual Average (KGVL) Record (KGVL)
Temperature  
Mean Temperature 71 °F 71 °F  
Max Temperature 78 °F 80 °F - ()
Min Temperature 64 °F 63 °F - ()
Degree Days  
Heating Degree Days 0 0  
Month to date heating degree days 0  
Since 1 July heating degree days 0  
Cooling Degree Days 6 7  
Month to date cooling degree days 154  
Year to date cooling degree days 1480  
Growing Degree Days 21 (Base 50)    
Moisture  
Dew Point 67 °F    
Average Humidity 91    
Maximum Humidity 100    
Minimum Humidity 54    
Precipitation  
Precipitation 0.00 in 0.16 in - ()
Month to date precipitation 2.64  
Year to date precipitation 38.89  
Sea Level Pressure  
Sea Level Pressure 29.99 in    
Wind  
Wind Speed 2 mph ()    
Max Wind Speed 10 mph    
Max Gust Speed -    
Visibility 6.3 miles    
Events Rain    
T = Trace of Precipitation, MM = Missing Value Source: Averaged Metar Reports

Daily Weather History Graph

Daily Weather History Graph

Search for Another Location

Airport or City:

Trip Planner

Search our weather history database for the weather conditions in past years. The results will help you decide how hot, cold, wet, or windy it might be!

Date:

Astronomy

Sep. 17, 2012 Rise Set
Actual Time 7:19 AM EDT 7:37 PM EDT
Civil Twilight 6:54 AM EDT 8:02 PM EDT
Nautical Twilight 6:24 AM EDT 8:31 PM EDT
Astronomical Twilight 5:54 AM EDT 9:01 PM EDT
Moon 8:59 AM EDT (9/17) 8:27 PM EDT (9/17)
Length of Visible Light 13h 08m
Length of Day
12h 18m
Waxing Crescent, 3% of the Moon is Illuminated
Sep 17
Waxing Crescent
Sep 22
First Quarter
Sep 29
Full
Oct 8
Last Quarter
Oct 15
New

Hourly Weather History & Observations

Time (EDT) Temp. Dew Point Humidity Pressure Visibility Wind Dir Wind Speed Gust Speed Precip Events Conditions
12:15 AM 68.0 °F 68.0 °F 100% 30.09 in 10.0 mi Calm Calm - N/A   Overcast
12:35 AM 68.0 °F 68.0 °F 100% 30.09 in 10.0 mi Calm Calm - N/A   Overcast
12:55 AM 68.0 °F 68.0 °F 100% 30.08 in 10.0 mi Calm Calm - N/A   Overcast
1:15 AM 68.0 °F 68.0 °F 100% 30.09 in 7.0 mi West 5.8 mph - N/A Rain Heavy Rain
1:35 AM 68.0 °F 68.0 °F 100% 30.10 in 5.0 mi Calm Calm - N/A Rain Light Rain
1:55 AM 68.0 °F 68.0 °F 100% 30.09 in 3.0 mi Calm Calm - N/A   Light Drizzle
2:15 AM 68.0 °F 68.0 °F 100% 30.09 in 4.0 mi Calm Calm - N/A   Light Drizzle
2:35 AM 68.0 °F 68.0 °F 100% 30.08 in 4.0 mi Calm Calm - N/A   Overcast
2:55 AM 66.2 °F 66.2 °F 100% 30.07 in 4.0 mi Calm Calm - N/A   Overcast
3:15 AM 66.2 °F 66.2 °F 100% 30.06 in 4.0 mi Calm Calm - N/A   Overcast
3:35 AM 66.2 °F 66.2 °F 100% 30.06 in 4.0 mi Calm Calm - N/A   Overcast
3:55 AM 66.2 °F 66.2 °F 100% 30.05 in 5.0 mi Calm Calm - N/A   Overcast
4:15 AM 66.2 °F 66.2 °F 100% 30.05 in 4.0 mi Calm Calm - N/A   Overcast
4:35 AM 66.2 °F 66.2 °F 100% 30.05 in 4.0 mi Calm Calm - N/A   Overcast
4:55 AM 64.4 °F 64.4 °F 100% 30.04 in 4.0 mi ENE 3.5 mph - N/A   Overcast
5:15 AM 64.4 °F 64.4 °F 100% 30.04 in 4.0 mi ENE 4.6 mph - N/A   Overcast
5:35 AM 64.4 °F 64.4 °F 100% 30.04 in 4.0 mi Calm Calm - N/A   Overcast
5:55 AM 64.4 °F 64.4 °F 100% 30.04 in 4.0 mi Calm Calm - N/A   Overcast
6:15 AM 64.4 °F 64.4 °F 100% 30.04 in 3.0 mi Calm Calm - N/A   Overcast
6:35 AM 64.4 °F 64.4 °F 100% 30.04 in 3.0 mi Calm Calm - N/A   Overcast
6:55 AM 64.4 °F 64.4 °F 100% 30.04 in 3.0 mi ENE 3.5 mph - N/A   Overcast
7:15 AM 64.4 °F 64.4 °F 100% 30.04 in 3.0 mi ENE 3.5 mph - N/A   Overcast
7:35 AM 64.4 °F 64.4 °F 100% 30.04 in 3.0 mi Calm Calm - N/A   Overcast
7:55 AM 64.4 °F 64.4 °F 100% 30.05 in 2.5 mi Calm Calm - N/A   Overcast
8:15 AM 66.2 °F 66.2 °F 100% 30.05 in 2.5 mi East 3.5 mph - N/A   Overcast
8:35 AM 66.2 °F 66.2 °F 100% 30.05 in 2.0 mi Calm Calm - N/A   Overcast
8:55 AM 66.2 °F 66.2 °F 100% 30.05 in 2.5 mi East 3.5 mph - N/A   Overcast
9:15 AM 68.0 °F 68.0 °F 100% 30.06 in 3.0 mi ESE 4.6 mph - N/A   Overcast
9:35 AM 68.0 °F 68.0 °F 100% 30.06 in 3.0 mi ESE 4.6 mph - N/A   Overcast
9:55 AM 68.0 °F 68.0 °F 100% 30.05 in 3.0 mi East 3.5 mph - N/A   Overcast
10:15 AM 68.0 °F 68.0 °F 100% 30.05 in 4.0 mi ESE 3.5 mph - N/A   Overcast
10:35 AM 68.0 °F 68.0 °F 100% 30.05 in 3.0 mi ESE 4.6 mph - N/A   Overcast
10:55 AM 69.8 °F 69.8 °F 100% 30.05 in 4.0 mi SE 3.5 mph - N/A   Overcast
11:15 AM 69.8 °F 69.8 °F 100% 30.05 in 7.0 mi SE 5.8 mph - N/A   Overcast
11:35 AM 69.8 °F 68.0 °F 94% 30.04 in 10.0 mi SE 3.5 mph - N/A   Overcast
11:55 AM 69.8 °F 68.0 °F 94% 30.04 in 10.0 mi SSE 5.8 mph - N/A   Overcast
12:15 PM 71.6 °F 68.0 °F 88% 30.03 in 10.0 mi South 5.8 mph - N/A   Overcast
12:35 PM 73.4 °F 69.8 °F 88% 30.03 in 10.0 mi ESE 5.8 mph - N/A   Overcast
12:55 PM 73.4 °F 64.4 °F 73% 30.03 in 10.0 mi SSE 4.6 mph - N/A   Overcast
1:15 PM 73.4 °F 62.6 °F 69% 30.02 in 10.0 mi South 5.8 mph - N/A   Scattered Clouds
1:35 PM 75.2 °F 62.6 °F 65% 30.01 in 10.0 mi SSE 4.6 mph - N/A   Mostly Cloudy
1:55 PM 75.2 °F 60.8 °F 61% 29.99 in 10.0 mi South 3.5 mph - N/A   Mostly Cloudy
2:15 PM 77.0 °F 60.8 °F 57% 29.98 in 10.0 mi SSE 4.6 mph - N/A   Overcast
2:35 PM 77.0 °F 60.8 °F 57% 29.97 in 10.0 mi South 6.9 mph - N/A   Mostly Cloudy
2:55 PM 77.0 °F 60.8 °F 57% 29.96 in 10.0 mi SE 3.5 mph - N/A   Mostly Cloudy
3:15 PM 78.8 °F 60.8 °F 54% 29.94 in 10.0 mi SE 5.8 mph - N/A   Mostly Cloudy
3:35 PM 77.0 °F 60.8 °F 57% 29.93 in 7.0 mi SSE 4.6 mph - N/A Rain Rain
3:55 PM 77.0 °F 62.6 °F 61% 29.92 in 10.0 mi SSE 4.6 mph - N/A   Scattered Clouds
4:15 PM 77.0 °F 62.6 °F 61% 29.93 in 5.0 mi South 9.2 mph - N/A Rain Heavy Rain
4:35 PM 73.4 °F 69.8 °F 88% 29.91 in 10.0 mi Calm Calm - N/A   Overcast
4:55 PM 73.4 °F 69.8 °F 88% 29.91 in 10.0 mi ESE 3.5 mph - N/A   Scattered Clouds
5:15 PM 73.4 °F 69.8 °F 88% 29.90 in 10.0 mi ESE 4.6 mph - N/A   Scattered Clouds
5:35 PM 73.4 °F 69.8 °F 88% 29.89 in 10.0 mi Calm Calm - N/A   Scattered Clouds
5:55 PM 71.6 °F 71.6 °F 100% 29.88 in 10.0 mi Calm Calm - N/A   Scattered Clouds
6:15 PM 71.6 °F 71.6 °F 100% 29.87 in 10.0 mi Calm Calm - N/A   Mostly Cloudy
6:55 PM 73.4 °F 69.8 °F 88% 29.88 in - Calm Calm - N/A   Unknown
7:15 PM 71.6 °F 71.6 °F 100% 29.87 in - Calm Calm - N/A   Unknown
7:35 PM 71.6 °F 69.8 °F 94% 29.88 in - Calm Calm - N/A   Unknown
7:55 PM 71.6 °F 69.8 °F 94% 29.88 in - Calm Calm - N/A   Unknown
8:15 PM 71.6 °F 69.8 °F 94% 29.87 in - Calm Calm - N/A   Overcast
8:35 PM 71.6 °F 69.8 °F 94% 29.87 in - Calm Calm - N/A   Overcast
8:55 PM 71.6 °F 69.8 °F 94% 29.86 in - Calm Calm - N/A   Overcast
9:15 PM 71.6 °F 69.8 °F 94% 29.86 in - ESE 3.5 mph - N/A   Overcast
9:35 PM 71.6 °F 69.8 °F 94% 29.89 in - SW 10.4 mph - N/A   Unknown
9:55 PM 71.6 °F 68.0 °F 88% 29.88 in - South 3.5 mph - N/A   Unknown
10:15 PM 71.6 °F 68.0 °F 88% 29.86 in - Calm Calm - N/A   Unknown
10:35 PM 71.6 °F 68.0 °F 88% 29.86 in - ESE 4.6 mph - N/A   Unknown
10:55 PM 71.6 °F 68.0 °F 88% 29.86 in - South 5.8 mph - N/A   Mostly Cloudy
11:15 PM 69.8 °F 68.0 °F 94% 29.85 in - SSE 5.8 mph - N/A   Unknown
11:35 PM 69.8 °F 68.0 °F 94% 29.85 in - South 4.6 mph - N/A   Unknown
11:55 PM 69.8 °F 68.0 °F 94% 29.84 in - SE 4.6 mph - N/A   Unknown